This demonstration page uses our WeatherBlox Daily Observations layout. Learn more.

Left ArrowRight Arrow

44.89941, -97.11507

Hourly Observations for February 6, 2021

Temp ( °F °C ) Dew Point ( °F °C ) Humidity (%) Winds ( mph kmh ) Pressure ( in mb ) Visibility ( mi km ) Precip ( " mm )
12:53 am 00:53 Clear -2 -18.9 -8 -22.2 75 75 NNW 10 17 30.07 1018 10 16 0.00 0.00
1:53 am 01:53 Clear -3 -19.4 -9 -22.8 75 75 NW 12 19 30.09 1019 10 16 0.00 0.00
2:53 am 02:53 Clear -3 -19.4 -9 -22.8 75 75 NW 12 19 30.11 1020 10 16 0.00 0.00
3:53 am 03:53 Mostly Clear -3 -19.4 -9 -22.8 75 75 NNW 14 22 30.11 1020 10 16 0.00 0.00
4:53 am 04:53 Clear -4 -20 -10 -23.3 75 75 NW 15 24 30.14 1021 10 16 0.00 0.00
5:53 am 05:53 Partly Cloudy -5 -20.6 -11 -23.9 75 75 NW 16 26 30.18 1022 9 14 0.00 0.00
6:20 am 06:20 Mostly Cloudy with Haze -6 -21.1 -11 -23.9 78 78 WNW 18 30 30.32 1027 4 6 0.00 0.00
6:32 am 06:32 Mostly Cloudy -6 -21.1 -11 -23.9 78 78 NW 14 22 30.32 1027 9 14 0.00 0.00
6:53 am 06:53 Cloudy -6 -21.1 -11 -23.9 78 78 NW 15 24 30.22 1023 7 11 0.00 0.00
7:11 am 07:11 Cloudy with Haze -6 -21.1 -11 -23.9 78 78 NW 16 26 30.34 1027 3 5 0.00 0.00
7:39 am 07:39 Cloudy with Haze -6 -21.1 -12 -24.4 75 75 NW 17 28 30.34 1027 3 5 0.00 0.00
7:50 am 07:50 Cloudy with Haze -6 -21 -11 -24 77 77 NW 15 24 30.34 1027 3 4 0.00 0.00
7:53 am 07:53 Cloudy with Haze -6 -21.1 -11 -23.9 78 78 WNW 12 19 30.24 1024 3 4 0.00 0.00
8:08 am 08:08 Cloudy with Haze -6 -21.1 -11 -23.9 78 78 NW 20 31 30.35 1028 2 3 0.00 0.00
8:15 am 08:15 Cloudy with Haze -6 -21.1 -11 -23.9 78 78 WNW 18 30 30.36 1028 2 2 0.00 0.00
8:30 am 08:30 Cloudy with Haze -6 -21.1 -13 -25 71 71 NW 21 33 30.37 1028 3 5 0.00 0.00
8:53 am 08:53 Cloudy -7 -21.7 -13 -25 75 75 NW 21 33 30.27 1025 8 13 0.00 0.00
9:31 am 09:31 Cloudy with Haze -7 -21.7 -13 -25 75 75 NW 18 30 30.38 1029 2 3 0.00 0.00
9:36 am 09:36 Mostly Cloudy with Haze -7 -21.7 -13 -25 75 75 NW 17 28 30.38 1029 3 5 0.00 0.00
9:53 am 09:53 Mostly Cloudy -8 -22.2 -16 -26.7 67 67 NW 21 33 30.28 1025 10 16 0.00 0.00
10:01 am 10:01 Mostly Sunny -7 -21.7 -15 -26.1 68 68 NW 21 33 30.38 1029 10 16 0.00 0.00
10:53 am 10:53 Sunny -7 -21.7 -16 -26.7 64 64 NW 20 31 30.30 1026 10 16 0.00 0.00
11:53 am 11:53 Sunny -7 -21.7 -16 -26.7 64 64 NW 17 28 30.32 1027 10 16 0.00 0.00
12:53 pm 12:53 Mostly Sunny -6 -21.1 -15 -26.1 64 64 NW 16 26 30.29 1026 10 16 0.00 0.00
1:53 pm 13:53 Sunny -5 -20.6 -15 -26.1 62 62 WNW 16 26 30.27 1025 10 16 0.00 0.00
2:53 pm 14:53 Sunny -4 -20 -14 -25.6 61 61 WNW 15 24 30.26 1025 10 16 0.00 0.00
3:53 pm 15:53 Sunny -3 -19.4 -14 -25.6 58 58 WNW 16 26 30.26 1025 10 16 0.00 0.00
4:53 pm 16:53 Sunny -4 -20 -15 -26.1 58 58 WNW 15 24 30.26 1025 10 16 0.00 0.00
5:53 pm 17:53 Clear -5 -20.6 -15 -26.1 62 62 NW 14 22 30.26 1025 10 16 0.00 0.00
6:53 pm 18:53 Clear -7 -21.7 -16 -26.7 64 64 NW 7 11 30.27 1025 10 16 0.00 0.00
7:53 pm 19:53 Clear -8 -22.2 -17 -27.2 64 64 NW 8 13 30.27 1025 10 16 0.00 0.00
8:53 pm 20:53 Clear -9 -22.8 -17 -27.2 67 67 NW 6 9 30.27 1025 10 16 0.00 0.00
9:53 pm 21:53 Clear -12 -24.4 -19 -28.3 70 70 NNW 6 9 30.28 1025 10 16 0.00 0.00
10:53 pm 22:53 Clear -12 -24.4 -19 -28.3 70 70 NNW 6 9 30.29 1026 10 16 0.00 0.00
11:53 pm 23:53 Clear -12 -24.4 -19 -28.3 70 70 NW 5 7 30.30 1026 10 16 0.00 0.00

Powered by AerisWeather